Time,TemperatureF,DewpointF,PressureIn,WindDirection,WindDirectionDegrees,WindSpeedMPH,WindSpeedGustMPH,Humidity,HourlyPrecipIn,Conditions,Clouds,dailyrainin,SoftwareType,DateUTC
2013-04-07 00:02:00,48.0,42.0,29.13,North,0,0.0,0.0,79,0.04,,,-99.99,,2013-04-07 05:02:00,
2013-04-07 00:12:00,48.0,42.0,29.13,North,0,0.0,0.0,79,0.04,,,-99.99,,2013-04-07 05:12:00,
2013-04-07 00:22:00,47.0,41.0,29.13,North,0,0.0,0.0,80,0.04,,,-99.99,,2013-04-07 05:22:00,
2013-04-07 00:33:00,47.0,41.0,29.13,North,0,0.0,0.0,81,0.04,,,-99.99,,2013-04-07 05:33:00,
2013-04-07 00:42:00,47.0,41.0,29.13,North,0,0.0,0.0,81,0.04,,,-99.99,,2013-04-07 05:42:00,
2013-04-07 00:52:00,47.0,41.0,29.14,North,0,0.0,0.0,81,0.04,,,-99.99,,2013-04-07 05:52:00,
2013-04-07 01:02:00,46.0,41.0,29.14,North,0,0.0,0.0,82,0.04,,,-99.99,,2013-04-07 06:02:00,
2013-04-07 01:12:00,46.0,41.0,29.14,North,0,0.0,0.0,82,0.04,,,-99.99,,2013-04-07 06:12:00,
2013-04-07 01:22:00,46.0,41.0,29.14,North,0,0.0,0.0,83,0.04,,,-99.99,,2013-04-07 06:22:00,
2013-04-07 01:32:00,46.0,41.0,29.12,North,0,0.0,0.0,83,0.04,,,-99.99,,2013-04-07 06:32:00,
2013-04-07 01:42:00,46.0,41.0,29.12,North,0,0.0,0.0,83,0.04,,,-99.99,,2013-04-07 06:42:00,
2013-04-07 01:52:00,44.0,39.0,29.14,North,0,0.0,0.0,83,0.04,,,-99.99,,2013-04-07 06:52:00,
2013-04-07 02:02:00,42.0,38.0,29.14,North,0,0.0,0.0,85,0.04,,,-99.99,,2013-04-07 07:02:00,
2013-04-07 02:12:00,42.0,38.0,29.14,North,0,0.0,0.0,85,0.04,,,-99.99,,2013-04-07 07:12:00,
2013-04-07 02:22:00,43.0,39.0,29.14,North,0,0.0,0.0,86,0.04,,,-99.99,,2013-04-07 07:22:00,
2013-04-07 02:32:00,44.0,40.0,29.14,North,0,0.0,0.0,87,0.04,,,-99.99,,2013-04-07 07:32:00,
2013-04-07 02:42:00,44.0,40.0,29.14,North,0,0.0,0.0,87,0.04,,,-99.99,,2013-04-07 07:42:00,
2013-04-07 02:52:00,44.0,40.0,29.14,North,0,0.0,0.0,87,0.04,,,-99.99,,2013-04-07 07:52:00,
2013-04-07 03:02:00,43.0,39.0,29.14,North,0,0.0,0.0,87,0.04,,,-99.99,,2013-04-07 08:02:00,
2013-04-07 03:12:00,43.0,40.0,29.14,North,0,0.0,0.0,88,0.04,,,-99.99,,2013-04-07 08:12:00,
2013-04-07 03:22:00,43.0,40.0,29.14,North,0,0.0,0.0,88,0.04,,,-99.99,,2013-04-07 08:22:00,
2013-04-07 03:32:00,42.0,39.0,29.14,North,0,0.0,0.0,88,0.04,,,-99.99,,2013-04-07 08:32:00,
2013-04-07 03:42:00,42.0,39.0,29.14,North,0,0.0,0.0,88,0.04,,,-99.99,,2013-04-07 08:42:00,
2013-04-07 03:53:00,41.0,38.0,29.14,North,0,0.0,0.0,90,0.04,,,-99.99,,2013-04-07 08:53:00,
2013-04-07 04:02:00,40.0,37.0,29.13,North,0,0.0,0.0,90,0.04,,,-99.99,,2013-04-07 09:02:00,
2013-04-07 04:12:00,40.0,37.0,29.13,North,0,0.0,0.0,90,0.04,,,-99.99,,2013-04-07 09:12:00,
2013-04-07 04:22:00,40.0,38.0,29.13,North,0,0.0,0.0,91,0.04,,,-99.99,,2013-04-07 09:22:00,
2013-04-07 04:33:00,40.0,38.0,29.13,North,0,0.0,0.0,91,0.04,,,-99.99,,2013-04-07 09:33:00,
2013-04-07 04:43:00,40.0,38.0,29.13,North,0,0.0,0.0,91,0.04,,,-99.99,,2013-04-07 09:43:00,
2013-04-07 04:53:00,40.0,38.0,29.13,North,0,0.0,0.0,91,0.04,,,-99.99,,2013-04-07 09:53:00,
2013-04-07 05:03:00,39.0,37.0,29.14,North,0,0.0,0.0,91,0.04,,,-99.99,,2013-04-07 10:03:00,
2013-04-07 05:13:00,39.0,37.0,29.14,North,0,0.0,0.0,91,0.04,,,-99.99,,2013-04-07 10:13:00,
2013-04-07 05:22:00,39.0,37.0,29.13,North,0,0.0,0.0,91,0.04,,,-99.99,,2013-04-07 10:22:00,
2013-04-07 05:33:00,38.0,36.0,29.14,North,0,0.0,0.0,92,0.04,,,-99.99,,2013-04-07 10:33:00,
2013-04-07 05:42:00,38.0,36.0,29.14,North,0,0.0,0.0,92,0.04,,,-99.99,,2013-04-07 10:42:00,
2013-04-07 05:54:00,38.0,36.0,29.14,North,0,0.0,0.0,92,0.04,,,-99.99,,2013-04-07 10:54:00,
2013-04-07 06:02:00,38.0,36.0,29.14,North,0,0.0,0.0,92,0.04,,,-99.99,,2013-04-07 11:02:00,
2013-04-07 06:12:00,38.0,36.0,29.14,North,0,0.0,0.0,92,0.04,,,-99.99,,2013-04-07 11:12:00,
2013-04-07 06:22:00,38.0,36.0,29.14,North,0,0.0,0.0,92,0.04,,,-99.99,,2013-04-07 11:22:00,
2013-04-07 06:32:00,39.0,37.0,29.14,North,0,0.0,0.0,93,0.04,,,-99.99,,2013-04-07 11:32:00,
2013-04-07 06:42:00,39.0,37.0,29.14,North,0,0.0,0.0,93,0.04,,,-99.99,,2013-04-07 11:42:00,
2013-04-07 06:52:00,40.0,38.0,29.15,SE,131,2.0,4.0,93,0.04,,,-99.99,,2013-04-07 11:52:00,
2013-04-07 07:02:00,43.0,41.0,29.15,ENE,70,3.0,6.0,93,0.04,,,-99.99,,2013-04-07 12:02:00,
2013-04-07 07:12:00,43.0,41.0,29.15,ENE,70,3.0,6.0,93,0.04,,,-99.99,,2013-04-07 12:12:00,
2013-04-07 07:22:00,44.0,42.0,29.14,ESE,108,2.0,6.0,93,0.04,,,-99.99,,2013-04-07 12:22:00,
2013-04-07 07:33:00,44.0,42.0,29.15,East,100,1.0,2.0,92,0.04,,,-99.99,,2013-04-07 12:33:00,
2013-04-07 07:42:00,44.0,42.0,29.15,East,100,1.0,2.0,92,0.04,,,-99.99,,2013-04-07 12:42:00,
2013-04-07 07:53:00,44.0,42.0,29.16,ESE,122,2.0,5.0,92,0.04,,,-99.99,,2013-04-07 12:53:00,
2013-04-07 08:03:00,44.0,42.0,29.14,SSE,158,5.0,9.0,92,0.04,,,-99.99,,2013-04-07 13:03:00,
2013-04-07 08:13:00,44.0,42.0,29.14,SSE,158,5.0,9.0,92,0.04,,,-99.99,,2013-04-07 13:13:00,
2013-04-07 08:22:00,45.0,43.0,29.15,SE,127,8.0,12.0,91,0.04,,,-99.99,,2013-04-07 13:22:00,
2013-04-07 08:32:00,46.0,44.0,29.16,SSE,156,5.0,10.0,91,0.04,,,-99.99,,2013-04-07 13:32:00,
2013-04-07 08:42:00,46.0,44.0,29.16,SSE,156,5.0,10.0,91,0.04,,,-99.99,,2013-04-07 13:42:00,
2013-04-07 08:53:00,47.0,44.0,29.18,ESE,111,5.0,7.0,90,0.04,,,-99.99,,2013-04-07 13:53:00,
2013-04-07 09:02:00,48.0,45.0,29.18,SE,139,2.0,5.0,89,0.04,,,-99.99,,2013-04-07 14:02:00,
2013-04-07 09:12:00,48.0,45.0,29.18,SE,139,2.0,5.0,89,0.04,,,-99.99,,2013-04-07 14:12:00,
2013-04-07 09:23:00,49.0,46.0,29.17,ESE,121,4.0,6.0,88,0.04,,,-99.99,,2013-04-07 14:23:00,
2013-04-07 09:32:00,49.0,45.0,29.16,ESE,108,6.0,10.0,86,0.04,,,-99.99,,2013-04-07 14:32:00,
2013-04-07 09:43:00,49.0,45.0,29.16,ESE,108,6.0,10.0,86,0.04,,,-99.99,,2013-04-07 14:43:00,
2013-04-07 09:54:00,49.0,45.0,29.16,ENE,77,4.0,11.0,85,0.04,,,-99.99,,2013-04-07 14:54:00,
2013-04-07 10:02:00,50.0,45.0,29.16,SSE,167,9.0,14.0,84,0.04,,,-99.99,,2013-04-07 15:02:00,
2013-04-07 10:12:00,50.0,45.0,29.14,SE,129,8.0,11.0,83,0.04,,,-99.99,,2013-04-07 15:12:00,
2013-04-07 10:22:00,50.0,45.0,29.14,SE,129,8.0,11.0,83,0.04,,,-99.99,,2013-04-07 15:22:00,
2013-04-07 10:33:00,51.0,45.0,29.14,East,94,8.0,14.0,81,0.04,,,-99.99,,2013-04-07 15:33:00,
2013-04-07 10:43:00,51.0,45.0,29.14,East,94,8.0,14.0,81,0.04,,,-99.99,,2013-04-07 15:43:00,
2013-04-07 10:54:00,52.0,46.0,29.14,SE,125,7.0,15.0,80,0.04,,,-99.99,,2013-04-07 15:54:00,
2013-04-07 11:03:00,54.0,47.0,29.13,SE,124,10.0,15.0,77,0.04,,,-99.99,,2013-04-07 16:03:00,
2013-04-07 11:13:00,54.0,47.0,29.13,SE,124,10.0,15.0,77,0.04,,,-99.99,,2013-04-07 16:13:00,
2013-04-07 11:24:00,55.0,47.0,29.14,NNE,28,8.0,13.0,75,0.04,,,-99.99,,2013-04-07 16:24:00,
2013-04-07 11:33:00,58.0,49.0,29.13,ESE,117,11.0,16.0,71,0.04,,,-99.99,,2013-04-07 16:33:00,
2013-04-07 11:42:00,58.0,49.0,29.13,ESE,117,11.0,16.0,71,0.04,,,-99.99,,2013-04-07 16:42:00,
2013-04-07 11:54:00,58.0,48.0,29.14,SE,134,9.0,12.0,69,0.04,,,-99.99,,2013-04-07 16:54:00,
2013-04-07 12:03:00,59.0,48.0,29.15,SSE,160,9.0,13.0,66,0.04,,,-99.99,,2013-04-07 17:03:00,
2013-04-07 12:13:00,59.0,48.0,29.15,SSE,160,9.0,13.0,66,0.04,,,-99.99,,2013-04-07 17:13:00,
2013-04-07 12:23:00,60.0,49.0,29.14,ESE,120,9.0,13.0,67,0.04,,,-99.99,,2013-04-07 17:23:00,
2013-04-07 12:33:00,62.0,49.0,29.13,ESE,120,10.0,15.0,63,0.04,,,-99.99,,2013-04-07 17:33:00,
2013-04-07 12:43:00,62.0,49.0,29.13,ESE,120,10.0,15.0,63,0.04,,,-99.99,,2013-04-07 17:43:00,
2013-04-07 12:53:00,62.0,49.0,29.13,SSE,150,12.0,16.0,62,0.04,,,-99.99,,2013-04-07 17:53:00,
2013-04-07 13:02:00,62.0,49.0,29.13,SE,125,10.0,15.0,62,0.04,,,-99.99,,2013-04-07 18:02:00,
2013-04-07 13:13:00,62.0,49.0,29.13,SE,125,10.0,15.0,62,0.04,,,-99.99,,2013-04-07 18:13:00,
2013-04-07 13:23:00,62.0,49.0,29.12,South,176,10.0,14.0,62,0.04,,,-99.99,,2013-04-07 18:23:00,
2013-04-07 13:32:00,63.0,50.0,29.11,SSE,148,12.0,16.0,62,0.04,,,-99.99,,2013-04-07 18:32:00,
2013-04-07 13:42:00,63.0,50.0,29.11,SSE,148,12.0,16.0,62,0.04,,,-99.99,,2013-04-07 18:42:00,
2013-04-07 13:53:00,65.0,51.0,29.10,SE,145,9.0,15.0,60,0.04,,,-99.99,,2013-04-07 18:53:00,
2013-04-07 14:02:00,66.0,50.0,29.10,South,180,12.0,16.0,56,0.04,,,-99.99,,2013-04-07 19:02:00,
2013-04-07 14:12:00,66.0,50.0,29.10,South,180,12.0,16.0,56,0.04,,,-99.99,,2013-04-07 19:12:00,
2013-04-07 14:22:00,67.0,50.0,29.10,SE,139,9.0,13.0,55,0.04,,,-99.99,,2013-04-07 19:22:00,
2013-04-07 14:32:00,67.0,50.0,29.09,SSE,159,9.0,11.0,54,0.04,,,-99.99,,2013-04-07 19:32:00,
2013-04-07 14:42:00,67.0,50.0,29.09,SSE,159,9.0,11.0,54,0.04,,,-99.99,,2013-04-07 19:42:00,
2013-04-07 14:55:00,68.0,50.0,29.09,SW,219,4.0,8.0,52,0.04,,,-99.99,,2013-04-07 19:55:00,
2013-04-07 15:02:00,69.0,50.0,29.08,West,277,4.0,9.0,51,0.04,,,-99.99,,2013-04-07 20:02:00,
2013-04-07 15:13:00,69.0,50.0,29.08,West,277,4.0,9.0,51,0.04,,,-99.99,,2013-04-07 20:13:00,
2013-04-07 15:22:00,71.0,51.0,29.07,SSW,201,4.0,8.0,49,0.04,,,-99.99,,2013-04-07 20:22:00,
2013-04-07 15:32:00,71.0,50.0,29.07,WSW,240,7.0,10.0,48,0.04,,,-99.99,,2013-04-07 20:32:00,
2013-04-07 15:43:00,71.0,50.0,29.07,WSW,240,7.0,10.0,48,0.04,,,-99.99,,2013-04-07 20:43:00,
2013-04-07 15:53:00,71.0,50.0,29.06,SW,229,5.0,8.0,48,0.04,,,-99.99,,2013-04-07 20:53:00,
2013-04-07 16:03:00,71.0,49.0,29.05,West,263,8.0,10.0,45,0.04,,,-99.99,,2013-04-07 21:03:00,
2013-04-07 16:13:00,71.0,49.0,29.05,West,263,8.0,10.0,45,0.04,,,-99.99,,2013-04-07 21:13:00,
2013-04-07 16:22:00,71.0,49.0,29.05,WSW,256,4.0,7.0,46,0.04,,,-99.99,,2013-04-07 21:22:00,
2013-04-07 16:33:00,71.0,50.0,29.05,South,174,3.0,5.0,47,0.04,,,-99.99,,2013-04-07 21:33:00,
2013-04-07 16:43:00,71.0,50.0,29.05,South,174,3.0,5.0,47,0.04,,,-99.99,,2013-04-07 21:43:00,
2013-04-07 16:55:00,71.0,50.0,29.04,North,0,0.0,0.0,48,0.04,,,-99.99,,2013-04-07 21:55:00,
2013-04-07 17:03:00,69.0,50.0,29.05,SSE,156,1.0,3.0,51,0.04,,,-99.99,,2013-04-07 22:03:00,
2013-04-07 17:13:00,69.0,50.0,29.05,SSE,156,1.0,3.0,51,0.04,,,-99.99,,2013-04-07 22:13:00,
2013-04-07 17:23:00,65.0,50.0,29.04,East,97,4.0,9.0,59,0.04,,,-99.99,,2013-04-07 22:23:00,
2013-04-07 17:33:00,65.0,50.0,29.05,SSW,208,6.0,10.0,58,0.04,,,-99.99,,2013-04-07 22:33:00,
2013-04-07 17:43:00,65.0,50.0,29.05,SSW,208,6.0,10.0,58,0.04,,,-99.99,,2013-04-07 22:43:00,
2013-04-07 17:53:00,66.0,51.0,29.04,SW,215,4.0,8.0,58,0.04,,,-99.99,,2013-04-07 22:53:00,
2013-04-07 18:03:00,67.0,52.0,29.02,North,0,0.0,0.0,58,0.04,,,-99.99,,2013-04-07 23:03:00,
2013-04-07 18:12:00,67.0,52.0,29.02,North,0,0.0,0.0,58,0.04,,,-99.99,,2013-04-07 23:12:00,
2013-04-07 18:22:00,67.0,51.0,29.00,North,0,0.0,0.0,56,0.04,,,-99.99,,2013-04-07 23:22:00,
2013-04-07 18:32:00,67.0,51.0,29.01,North,0,0.0,0.0,57,0.04,,,-99.99,,2013-04-07 23:32:00,
2013-04-07 18:42:00,67.0,51.0,29.01,North,0,0.0,0.0,57,0.04,,,-99.99,,2013-04-07 23:42:00,
2013-04-07 18:52:00,67.0,52.0,29.00,North,0,0.0,0.0,58,0.04,,,-99.99,,2013-04-07 23:52:00,
2013-04-07 19:02:00,67.0,53.0,29.00,North,0,0.0,0.0,60,0.04,,,-99.99,,2013-04-08 00:02:00,
2013-04-07 19:12:00,67.0,53.0,29.00,North,0,0.0,0.0,60,0.04,,,-99.99,,2013-04-08 00:12:00,
2013-04-07 19:22:00,65.0,52.0,29.00,North,0,0.0,0.0,62,0.04,,,-99.99,,2013-04-08 00:22:00,
2013-04-07 19:32:00,63.0,51.0,29.00,East,90,1.0,5.0,65,0.04,,,-99.99,,2013-04-08 00:32:00,
2013-04-07 19:42:00,63.0,51.0,29.00,East,90,1.0,5.0,65,0.04,,,-99.99,,2013-04-08 00:42:00,
2013-04-07 19:53:00,62.0,51.0,29.00,SE,136,1.0,4.0,67,0.04,,,-99.99,,2013-04-08 00:53:00,
2013-04-07 20:02:00,61.0,50.0,29.00,North,0,0.0,0.0,68,0.04,,,-99.99,,2013-04-08 01:02:00,
2013-04-07 20:12:00,61.0,50.0,29.00,North,0,0.0,0.0,68,0.04,,,-99.99,,2013-04-08 01:12:00,
2013-04-07 20:22:00,60.0,50.0,29.00,North,352,4.0,7.0,70,0.04,,,-99.99,,2013-04-08 01:22:00,
2013-04-07 20:33:00,59.0,50.0,29.03,NW,319,16.0,20.0,73,0.04,,,-99.99,,2013-04-08 01:33:00,
2013-04-07 20:43:00,59.0,50.0,29.03,NW,319,16.0,20.0,73,0.04,,,-99.99,,2013-04-08 01:43:00,
2013-04-07 20:55:00,58.0,51.0,29.03,NNW,339,15.0,21.0,77,0.04,,,-99.99,,2013-04-08 01:55:00,
2013-04-07 21:02:00,56.0,52.0,29.00,North,3,7.0,10.0,87,0.04,,,-99.99,,2013-04-08 02:02:00,
2013-04-07 21:12:00,56.0,52.0,29.00,North,3,7.0,10.0,87,0.04,,,-99.99,,2013-04-08 02:12:00,
2013-04-07 21:22:00,55.0,52.0,29.00,NNE,18,6.0,11.0,88,0.04,,,-99.99,,2013-04-08 02:22:00,
2013-04-07 21:33:00,55.0,51.0,29.00,NNW,336,6.0,11.0,87,0.04,,,-99.99,,2013-04-08 02:33:00,
2013-04-07 21:45:00,55.0,51.0,29.00,NNW,336,6.0,11.0,87,0.04,,,-99.99,,2013-04-08 02:45:00,
2013-04-07 21:52:00,55.0,51.0,29.00,NE,38,7.0,11.0,85,0.04,,,-99.99,,2013-04-08 02:52:00,
2013-04-07 22:06:00,55.0,50.0,29.00,North,0,0.0,0.0,84,0.04,,,-99.99,,2013-04-08 03:06:00,
2013-04-07 22:14:00,55.0,50.0,29.00,North,0,0.0,0.0,84,0.04,,,-99.99,,2013-04-08 03:14:00,
2013-04-07 22:24:00,55.0,50.0,29.02,North,0,0.0,0.0,84,0.04,,,-99.99,,2013-04-08 03:24:00,
2013-04-07 22:33:00,54.0,51.0,29.04,West,260,7.0,8.0,90,0.06,,,-99.99,,2013-04-08 03:33:00,
2013-04-07 22:47:00,54.0,51.0,29.04,West,260,7.0,8.0,90,0.06,,,-99.99,,2013-04-08 03:47:00,
2013-04-07 22:56:00,53.0,50.0,29.04,West,264,2.0,4.0,90,0.08,,,-99.99,,2013-04-08 03:56:00,
2013-04-07 23:03:00,53.0,50.0,29.01,SE,131,1.0,5.0,91,0.15,,,-99.99,,2013-04-08 04:03:00,
2013-04-07 23:12:00,53.0,50.0,29.01,SE,131,1.0,5.0,91,0.15,,,-99.99,,2013-04-08 04:12:00,
2013-04-07 23:23:00,52.0,49.0,29.01,SE,131,2.0,5.0,91,0.16,,,-99.99,,2013-04-08 04:23:00,
2013-04-07 23:33:00,52.0,50.0,29.00,East,84,3.0,7.0,92,0.19,,,-99.99,,2013-04-08 04:33:00,
2013-04-07 23:43:00,52.0,50.0,29.00,East,84,3.0,7.0,92,0.19,,,-99.99,,2013-04-08 04:43:00,
2013-04-07 23:53:00,52.0,50.0,29.00,ESE,110,4.0,8.0,93,0.20,,,-99.99,,2013-04-08 04:53:00,